CW2274 Weather Reports


time (UTC)temp
C
wind
direction
speed
KPH
gust
KPH
rain 1hr
cm
rain 24hr
cm
rain mn
cm
humidity
%
barometer
mb
20260506171020 21 66 1.6 6.4 0.00 0.00 0.00 36 1017.9
20260506170516 21 22 1.6 9.7 0.00 0.00 0.00 35 1017.9
20260506170043 21 13 3.2 9.7 0.00 0.00 0.00 37 1018.0
20260506165525 20 60 1.6 6.4 0.00 0.00 0.00 36 1018.0
20260506165020 20 64 1.6 6.4 0.00 0.00 0.00 41 1018.0
20260506164520 20 64 1.6 11.3 0.00 0.00 0.00 38 1017.9
20260506164016 20 83 4.8 11.3 0.00 0.00 0.00 38 1018.0
20260506163512 20 360 1.6 9.7 0.00 0.00 0.00 39 1017.9
20260506163027 20 27 4.8 9.7 0.00 0.00 0.00 39 1017.9
20260506162523 20 335 1.6 4.8 0.00 0.00 0.00 37 1017.7
20260506162059 20 352 3.2 4.8 0.00 0.00 0.00 42 1017.7
20260506161529 20 10 3.2 4.8 0.00 0.00 0.00 43 1017.7
20260506161025 20 344 1.6 4.8 0.00 0.00 0.00 44 1017.7
20260506160521 20 344 1.6 3.2 0.00 0.00 0.00 43 1017.8
20260506160033 19 73 0.0 6.4 0.00 0.00 0.00 45 1017.8
20260506155515 18 73 1.6 6.4 0.00 0.00 0.00 46 1017.7
20260506155031 18 88 1.6 8.0 0.00 0.00 0.00 47 1017.8
20260506154526 18 88 3.2 8.0 0.00 0.00 0.00 49 1017.7
20260506154023 18 94 3.2 6.4 0.00 0.00 0.00 47 1017.7
20260506153518 18 94 0.0 4.8 0.00 0.00 0.00 49 1017.7
20260506153014 18 94 1.6 4.8 0.00 0.00 0.00 49 1017.6
20260506152514 17 94 1.6 4.8 0.00 0.00 0.00 50 1017.7
20260506152030 17 98 1.6 3.2 0.00 0.00 0.00 51 1017.7
20260506151525 17 97 1.6 6.4 0.00 0.00 0.00 51 1017.7
20260506151022 17 98 3.2 6.4 0.00 0.00 0.00 52 1017.7
20260506150518 17 105 3.2 4.8 0.00 0.00 0.00 52 1017.7
20260506150045 16 106 1.6 4.8 0.00 0.00 0.00 55 1017.7
20260506145527 16 106 3.2 6.4 0.00 0.00 0.00 56 1017.6
20260506145027 16 108 4.8 6.4 0.00 0.00 0.00 57 1017.5
20260506144523 16 120 3.2 6.4 0.00 0.00 0.00 58 1017.6
20260506144018 15 128 3.2 6.4 0.00 0.00 0.00 58 1017.7
20260506143514 15 128 3.2 6.4 0.00 0.00 0.00 59 1017.6
20260506143030 15 272 3.2 4.8 0.00 0.00 0.00 61 1017.7
20260506142526 15 276 0.0 4.8 0.00 0.00 0.00 61 1017.7
20260506142022 15 275 1.6 4.8 0.00 0.00 0.00 61 1017.7
20260506141522 15 276 1.6 3.2 0.00 0.00 0.00 61 1017.7
20260506141018 15 275 1.6 3.2 0.00 0.00 0.00 64 1017.6
20260506140513 15 273 1.6 3.2 0.00 0.00 0.00 63 1017.7
20260506140042 13 271 1.6 4.8 0.00 0.00 0.00 65 1017.6
20260506135523 13 270 3.2 4.8 0.00 0.00 0.00 66 1017.5
20260506135018 13 271 3.2 4.8 0.00 0.00 0.00 68 1017.6
20260506134513 13 272 3.2 4.8 0.00 0.00 0.00 68 1017.5
20260506134013 13 271 0.0 0.0 0.00 0.00 0.00 69 1017.5
20260506133530 13 271 0.0 0.0 0.00 0.00 0.00 70 1017.5
20260506133026 13 271 0.0 0.0 0.00 0.00 0.00 71 1017.4
20260506132522 12 271 0.0 0.0 0.00 0.00 0.00 73 1017.3
20260506132018 12 271 0.0 0.0 0.00 0.00 0.00 75 1017.3
20260506131514 12 271 0.0 0.0 0.00 0.00 0.00 76 1017.3
20260506131029 12 271 0.0 0.0 0.00 0.00 0.00 77 1017.2
20260506130525 11 271 0.0 0.0 0.00 0.00 0.00 77 1017.1
20260506130036 11 271 0.0 0.0 0.00 0.00 0.00 76 1017.1
20260506125518 11 271 0.0 0.0 0.00 0.00 0.00 77 1017.1
20260506125014 11 271 0.0 0.0 0.00 0.00 0.00 77 1017.1
20260506124529 11 273 0.0 0.0 0.00 0.00 0.00 77 1017.1
20260506124025 11 273 0.0 1.6 0.00 0.00 0.00 78 1017.0
20260506123521 10 273 0.0 1.6 0.00 0.00 0.00 78 1017.0
20260506123018 10 273 0.0 0.0 0.00 0.00 0.00 77 1017.0
20260506122518 11 273 0.0 0.0 0.00 0.00 0.00 76 1016.8
20260506122014 11 273 0.0 0.0 0.00 0.00 0.00 77 1016.8
20260506121530 11 273 0.0 0.0 0.00 0.00 0.00 78 1016.8
20260506121025 11 273 0.0 0.0 0.00 0.00 0.00 76 1016.7
20260506120521 11 273 0.0 0.0 0.00 0.00 0.00 77 1016.7
20260506120029 11 273 0.0 0.0 0.00 0.00 0.00 78 1016.7
20260506115530 11 273 0.0 0.0 0.00 0.05 0.00 76 1016.6
20260506115030 11 273 0.0 0.0 0.00 0.05 0.00 76 1016.6
20260506114526 11 273 0.0 0.0 0.00 0.05 0.00 75 1016.5
20260506114021 11 273 0.0 0.0 0.00 0.05 0.00 73 1016.6
20260506113517 12 273 0.0 0.0 0.00 0.05 0.00 72 1016.4
20260506113013 12 273 0.0 0.0 0.00 0.05 0.00 70 1016.4
20260506112529 12 273 0.0 0.0 0.00 0.05 0.00 71 1016.3
20260506112025 11 273 0.0 0.0 0.00 0.05 0.00 72 1016.3
20260506111525 12 273 0.0 0.0 0.00 0.05 0.00 71 1016.3
20260506111020 12 273 0.0 0.0 0.00 0.05 0.00 69 1016.3
20260506110516 12 273 0.0 0.0 0.00 0.05 0.00 70 1016.3
20260506110042 12 273 0.0 0.0 0.00 0.05 0.00 71 1016.2
20260506105523 12 273 0.0 0.0 0.00 0.08 0.00 71 1016.2
20260506105019 11 273 0.0 0.0 0.00 0.08 0.00 72 1016.2
20260506104515 12 273 0.0 0.0 0.00 0.08 0.00 69 1016.1
20260506104015 12 273 0.0 1.6 0.00 0.08 0.00 72 1016.1
20260506103531 12 273 0.0 1.6 0.00 0.08 0.00 72 1016.0
20260506103026 12 273 1.6 3.2 0.00 0.08 0.00 72 1015.9
20260506102522 12 273 1.6 3.2 0.00 0.08 0.00 70 1016.0
20260506102018 12 273 0.0 0.0 0.00 0.08 0.00 69 1016.0
20260506101514 12 273 0.0 0.0 0.00 0.08 0.00 71 1015.8
20260506101030 12 273 0.0 0.0 0.00 0.08 0.00 70 1015.8
20260506100526 12 273 0.0 0.0 0.00 0.08 0.00 69 1015.8
20260506100037 12 273 0.0 0.0 0.00 0.08 0.00 70 1015.8
20260506095518 12 273 0.0 0.0 0.00 0.13 0.00 73 1015.7
20260506095014 12 273 0.0 0.0 0.00 0.13 0.00 72 1015.7
20260506094530 12 273 0.0 0.0 0.00 0.13 0.00 71 1015.6
20260506094025 12 273 0.0 1.6 0.00 0.13 0.00 70 1015.5
20260506093521 12 273 0.0 1.6 0.00 0.13 0.00 70 1015.6
20260506093017 12 273 0.0 1.6 0.00 0.13 0.00 71 1015.6
20260506092518 12 273 0.0 0.0 0.00 0.13 0.00 69 1015.7
20260506092014 13 273 0.0 1.6 0.00 0.13 0.00 68 1015.6
20260506091529 13 273 0.0 1.6 0.00 0.13 0.00 68 1015.6
20260506091025 13 273 0.0 1.6 0.00 0.13 0.00 67 1015.7
20260506090521 13 273 0.0 1.6 0.00 0.13 0.00 67 1015.7
20260506090028 13 273 0.0 0.0 0.00 0.13 0.00 67 1015.8
20260506085530 13 273 0.0 0.0 0.00 0.20 0.00 68 1015.6
20260506085030 13 273 0.0 0.0 0.00 0.20 0.00 67 1015.7
20260506084525 13 273 0.0 0.0 0.00 0.20 0.00 65 1015.7
20260506084021 14 273 0.0 1.6 0.00 0.20 0.00 63 1015.7
20260506083517 14 273 0.0 3.2 0.00 0.20 0.00 62 1015.7
20260506083013 14 273 0.0 3.2 0.00 0.20 0.00 62 1015.7
20260506082528 14 273 0.0 3.2 0.00 0.20 0.00 63 1015.7
20260506082024 15 273 0.0 3.2 0.00 0.20 0.00 61 1015.8
20260506081524 15 273 0.0 3.2 0.00 0.20 0.00 60 1015.8
20260506081019 15 273 0.0 3.2 0.00 0.20 0.00 59 1015.9
20260506080515 15 273 1.6 9.7 0.00 0.20 0.00 61 1015.9
20260506073512 15 273 0.0 3.2 0.00 0.36 0.00 63 1015.9
20260506073027 15 273 0.0 3.2 0.00 0.36 0.00 61 1015.9
20260506072522 15 273 0.0 1.6 0.00 0.36 0.00 59 1015.9
20260506072038 15 273 0.0 1.6 0.00 0.36 0.00 59 1015.9
20260506071526 15 273 0.0 3.2 0.00 0.36 0.00 58 1015.8
20260506071022 15 273 0.0 3.2 0.00 0.36 0.00 59 1015.8
20260506070517 15 273 1.6 3.2 0.00 0.36 0.00 61 1015.7
20260506062025 16 282 1.6 9.7 0.00 0.48 0.36 56 1015.5
20260506061520 16 284 1.6 3.2 0.00 0.48 0.36 55 1015.6
20260506061016 17 284 0.0 6.4 0.00 0.48 0.36 54 1015.6
20260506060512 17 283 1.6 8.0 0.00 0.48 0.36 54 1015.5
20260506051014 18 288 1.6 11.3 0.00 0.58 0.36 50 1015.2
20260506050530 18 285 1.6 11.3 0.00 0.58 0.36 50 1015.2
20260506045014 18 292 1.6 6.4 0.00 0.66 0.36 50 1014.9
20260506044530 18 281 0.0 9.7 0.00 0.66 0.36 50 1014.9
20260506044026 18 277 3.2 11.3 0.00 0.66 0.36 49 1014.8
20260506043525 18 265 4.8 12.9 0.00 0.66 0.36 48 1014.8
20260506043021 18 289 4.8 12.9 0.00 0.66 0.36 48 1014.8
20260506042517 18 317 3.2 8.0 0.00 0.66 0.36 48 1014.8
20260506042033 18 339 1.6 4.8 0.00 0.66 0.36 47 1014.7
20260506041528 18 294 0.0 16.1 0.00 0.66 0.36 46 1014.6
20260506041024 18 293 4.8 16.1 0.00 0.66 0.36 45 1014.4
20260506040520 18 227 4.8 14.5 0.00 0.66 0.36 45 1014.2
20260506040031 18 269 4.8 14.5 0.00 0.66 0.36 45 1013.9
20260506035532 18 229 6.4 14.5 0.00 0.69 0.36 45 1013.8
20260506035028 19 251 6.4 17.7 0.00 0.69 0.36 45 1013.9
20260506034524 19 270 8.0 16.1 0.00 0.69 0.36 44 1013.8
20260506034020 19 240 4.8 17.7 0.00 0.69 0.36 44 1013.8
20260506033515 19 244 4.8 22.5 0.00 0.69 0.36 43 1013.7
20260506033031 19 262 9.7 22.5 0.00 0.69 0.36 42 1013.6
20260506032531 19 264 8.0 20.9 0.00 0.69 0.36 42 1013.5
20260506032027 19 242 6.4 20.9 0.00 0.69 0.36 40 1013.4
20260506031522 19 275 3.2 16.1 0.00 0.69 0.36 37 1013.4
20260506031018 20 274 4.8 17.7 0.00 0.69 0.36 36 1013.3
20260506030515 19 257 8.0 17.7 0.00 0.69 0.36 36 1013.3
20260506030042 19 266 8.0 16.1 0.00 0.69 0.36 36 1013.3
20260506025525 20 262 1.6 14.5 0.00 0.71 0.36 36 1013.2
20260506025024 20 277 4.8 12.9 0.00 0.71 0.36 35 1013.0
20260506024520 20 262 4.8 14.5 0.00 0.71 0.36 35 1013.1
20260506024016 20 271 6.4 14.5 0.00 0.71 0.36 34 1012.9
20260506023532 20 270 1.6 12.9 0.00 0.71 0.36 34 1012.7
20260506023027 20 267 3.2 14.5 0.00 0.71 0.36 33 1012.7
20260506022523 20 276 3.2 17.7 0.00 0.71 0.36 31 1012.6
20260506022019 20 279 6.4 17.7 0.00 0.71 0.36 31 1012.5
20260506021518 20 273 4.8 22.5 0.00 0.71 0.36 31 1012.2
20260506021014 20 273 9.7 22.5 0.00 0.71 0.36 31 1012.1
20260506020531 20 292 8.0 19.3 0.00 0.71 0.36 30 1012.0
20260506020039 21 279 6.4 19.3 0.00 0.71 0.36 30 1011.9
20260506015520 21 281 4.8 20.9 0.00 0.76 0.36 33 1011.9
20260506015015 21 250 4.8 17.7 0.00 0.76 0.36 31 1011.9
20260506014531 21 226 8.0 20.9 0.00 0.76 0.36 31 1011.9
20260506014027 21 263 9.7 22.5 0.00 0.76 0.36 31 1011.9
20260506013527 21 258 11.3 25.7 0.00 0.76 0.36 30 1011.8
20260506013022 21 277 9.7 25.7 0.00 0.76 0.36 31 1011.8
20260506012518 21 286 12.9 25.7 0.00 0.76 0.36 32 1011.8
20260506012014 21 255 9.7 20.9 0.00 0.76 0.36 32 1011.8
20260506011530 21 280 11.3 22.5 0.00 0.76 0.36 32 1011.8
20260506011026 21 285 11.3 27.4 0.00 0.76 0.36 32 1011.8
20260506010521 21 267 12.9 27.4 0.00 0.76 0.36 32 1011.7
20260506010032 22 274 14.5 24.1 0.00 0.76 0.36 32 1011.6
20260506005514 22 241 8.0 20.9 0.00 0.76 0.36 31 1011.7
20260506005029 22 250 4.8 20.9 0.00 0.76 0.36 31 1011.6
20260506004525 22 266 12.9 22.5 0.00 0.76 0.36 30 1011.5
20260506004021 22 269 12.9 24.1 0.00 0.76 0.36 30 1011.4
20260506003517 22 282 8.0 24.1 0.00 0.76 0.36 29 1011.4
20260506003013 22 250 11.3 22.5 0.00 0.76 0.36 29 1011.4
20260506002513 23 248 14.5 24.1 0.00 0.76 0.36 29 1011.4
20260506002029 23 256 12.9 27.4 0.00 0.76 0.36 27 1011.4
20260506001525 23 284 9.7 27.4 0.00 0.76 0.36 28 1011.4
20260506001022 23 250 11.3 24.1 0.00 0.76 0.36 27 1011.3
20260506000517 23 227 9.7 24.1 0.00 0.76 0.36 27 1011.3
20260506000045 24 290 9.7 25.7 0.00 0.76 0.36 28 1011.2
20260505235526 24 277 12.9 25.7 0.00 0.76 0.36 26 1011.2
20260505235026 24 269 12.9 25.7 0.00 0.76 0.36 26 1011.0
20260505234522 25 266 8.0 19.3 0.00 0.76 0.36 26 1011.0
20260505234018 23 232 8.0 25.7 0.00 0.76 0.36 26 1010.9
20260505233513 23 280 9.7 25.7 0.00 0.76 0.36 25 1010.9
20260505233029 24 225 9.7 25.7 0.00 0.76 0.36 25 1010.9
20260505232525 25 252 9.7 20.9 0.00 0.76 0.36 26 1011.0
20260505232021 24 262 9.7 20.9 0.00 0.76 0.36 26 1010.9
20260505231521 25 268 9.7 20.9 0.00 0.76 0.36 26 1011.0
20260505231017 25 219 8.0 24.1 0.00 0.76 0.36 24 1010.9
20260505230532 25 233 14.5 22.5 0.00 0.76 0.36 24 1011.0
20260505230040 24 258 9.7 24.1 0.00 0.76 0.36 25 1011.0
20260505225521 25 246 14.5 30.6 0.00 0.76 0.36 24 1011.0
20260505225016 25 262 11.3 30.6 0.00 0.76 0.36 26 1011.0
20260505224532 23 227 11.3 25.7 0.00 0.76 0.36 27 1010.9
20260505224027 24 226 12.9 25.7 0.00 0.76 0.36 25 1011.0
20260505223527 25 242 9.7 22.5 0.00 0.76 0.36 26 1011.0
20260505223023 24 205 12.9 22.5 0.00 0.76 0.36 28 1011.2
20260505222519 23 213 6.4 22.5 0.00 0.76 0.36 28 1011.3
20260505222015 23 256 8.0 35.4 0.00 0.76 0.36 30 1011.3
20260505221531 23 213 19.3 35.4 0.00 0.76 0.36 28 1011.3
20260505221026 23 273 11.3 30.6 0.00 0.76 0.36 30 1011.3
20260505220522 25 257 14.5 30.6 0.00 0.76 0.36 27 1011.5
20260505220034 24 292 16.1 27.4 0.00 0.76 0.36 29 1011.4
20260505215515 23 208 12.9 25.7 0.00 0.76 0.36 30 1011.4
20260505215031 22 220 9.7 25.7 0.00 0.76 0.36 31 1011.7
20260505214527 23 234 8.0 24.1 0.00 0.76 0.36 30 1011.9
20260505214022 23 127 8.0 24.1 0.00 0.76 0.36 29 1011.9
20260505213518 24 228 9.7 25.7 0.00 0.76 0.36 29 1011.9
20260505213014 24 233 12.9 25.7 0.00 0.76 0.36 29 1012.1
20260505212513 24 204 8.0 27.4 0.00 0.76 0.36 30 1012.2
20260505212029 23 246 16.1 29.0 0.00 0.76 0.36 30 1012.1
20260505211524 24 206 17.7 30.6 0.00 0.76 0.36 29 1012.3
20260505211020 24 227 20.9 30.6 0.00 0.76 0.36 27 1012.4
20260505210516 25 235 11.3 32.2 0.00 0.76 0.36 29 1012.1
20260505210044 23 229 17.7 32.2 0.00 0.76 0.36 30 1012.3
20260505205525 23 250 12.9 32.2 0.00 0.76 0.36 30 1012.3
20260505205025 23 204 12.9 35.4 0.00 0.76 0.36 29 1012.4
20260505204521 24 246 16.1 35.4 0.00 0.76 0.36 29 1012.4
20260505204017 24 239 16.1 32.2 0.00 0.76 0.36 28 1012.4
20260505203513 24 257 17.7 33.8 0.00 0.76 0.36 29 1012.4
20260505203029 24 281 17.7 35.4 0.00 0.76 0.36 29 1012.4
20260505202525 23 244 17.7 35.4 0.00 0.76 0.36 28 1012.3
20260505202020 24 276 11.3 40.2 0.00 0.76 0.36 27 1012.3
20260505201520 24 242 17.7 41.8 0.00 0.76 0.36 27 1012.4
20260505201016 23 280 24.1 41.8 0.00 0.76 0.36 29 1012.4
20260505200532 23 279 20.9 38.6 0.00 0.76 0.36 29 1012.3
20260505200039 23 269 22.5 38.6 0.00 0.76 0.36 30 1012.4
20260505195519 23 280 16.1 38.6 0.00 0.76 0.36 31 1012.4
20260505195015 24 213 16.1 41.8 0.00 0.76 0.36 33 1012.5
20260505194531 23 210 17.7 41.8 0.00 0.76 0.36 33 1012.5
20260505194026 23 252 22.5 38.6 0.00 0.76 0.36 35 1012.5
20260505193526 23 217 16.1 33.8 0.00 0.76 0.36 36 1012.6
20260505193022 23 327 17.7 29.0 0.00 0.76 0.36 36 1012.6
20260505192518 23 238 16.1 30.6 0.00 0.76 0.36 40 1012.6
20260505192013 23 229 11.3 33.8 0.00 0.76 0.36 40 1012.7
20260505191528 22 236 16.1 33.8 0.00 0.76 0.36 43 1012.7
20260505191024 23 242 14.5 32.2 0.00 0.76 0.36 43 1012.7
20260505190520 23 222 17.7 29.0 0.00 0.76 0.36 41 1012.9
20260505190031 22 231 16.1 27.4 0.00 0.76 0.36 43 1012.9
20260505185513 23 238 14.5 27.4 0.00 0.76 0.36 43 1013.0
20260505185028 22 251 11.3 27.4 0.00 0.76 0.36 45 1013.0
20260505184524 22 250 12.9 24.1 0.00 0.76 0.36 46 1013.1
20260505184020 22 265 6.4 16.1 0.00 0.76 0.36 50 1013.2
20260505183516 22 243 4.8 22.5 0.00 0.76 0.36 50 1013.4
20260505183032 21 194 6.4 22.5 0.00 0.76 0.36 49 1013.2
20260505182512 22 204 6.4 20.9 0.00 0.76 0.36 49 1013.5
20260505182028 21 111 4.8 19.3 0.00 0.76 0.36 52 1013.5
20260505181524 21 200 8.0 16.1 0.00 0.76 0.36 51 1013.5
20260505181020 21 76 3.2 8.0 0.00 0.76 0.36 51 1013.7
20260505180516 21 235 0.0 12.9 0.00 0.76 0.36 54 1013.9
20260505180044 21 232 3.2 12.9 0.00 0.76 0.36 56 1014.0
20260505175525 20 250 3.2 8.0 0.00 0.76 0.36 56 1014.0
20260505175025 19 196 1.6 6.4 0.00 0.76 0.36 57 1014.1
20260505174521 19 148 3.2 6.4 0.00 0.76 0.36 59 1014.0
20260505174017 18 148 1.6 9.7 0.00 0.76 0.36 61 1014.1
20260505173512 18 112 6.4 11.3 0.00 0.76 0.36 60 1014.0
20260505173028 19 100 1.6 6.4 0.00 0.76 0.36 61 1014.1
20260505172524 19 262 3.2 6.4 0.00 0.76 0.36 59 1014.2
20260505172020 19 281 0.0 4.8 0.00 0.76 0.36 62 1014.1
20260505171519 19 281 3.2 11.3 0.00 0.76 0.36 61 1014.2